Wind_Speed
16 15 15 14 13 12 12 11 10 9 8 8 7 7 6 6 6 6 6 7 7 7 7 8 9 9 10 10 11 11 11 11 12 12 11 12 12 11 12 11 9 6 5 3 3 7 13 18 15 13 13 13 14 14 13 13 12 10 10 9 8 8 8
16 14 14 14 12 12 12 11 11 10 9 9 7 7 6 5 5 5 5 5 6 6 7 8 9 10 10 10 11 11 11 11 11 12 12 12 12 11 11 12 11 9 7 5 4 6 11 17 17 17 18 17 17 16 15 14 13 11 10 9 8 7 7
17 15 14 13 12 12 12 11 10 10 10 9 7 6 6 6 6 6 5 5 5 6 7 8 8 8 9 9 10 11 11 11 12 13 13 13 13 12 12 12 12 11 8 7 8 9 11 13 15 18 20 20 20 18 16 14 12 10 9 8 8 7 7
17 15 15 14 13 13 12 11 10 10 9 8 7 5 4 5 6 6 6 6 6 7 7 7 7 7 7 7 8 9 9 11 12 13 13 13 14 13 13 13 12 11 9 8 8 10 13 13 15 20 20 19 20 19 17 14 12 11 10 10 10 9 9
15 13 12 12 13 12 11 10 9 8 6 5 4 4 4 4 6 7 7 7 7 7 7 7 7 7 7 7 6 7 8 9 10 12 13 13 13 13 13 12 11 10 9 8 8 9 11 11 14 22 22 20 19 18 16 14 12 10 10 10 11 11 11
12 10 9 10 11 11 10 8 6 4 3 3 2 2 3 5 5 6 7 7 6 6 5 6 9 9 7 7 6 6 7 7 8 10 11 11 12 13 12 11 11 10 9 8 8 9 10 12 15 21 23 20 19 19 17 14 11 10 10 11 12 12 11
11 8 7 8 10 10 8 5 3 3 2 2 1 0 2 3 4 4 6 6 6 5 3 3 7 10 8 7 7 7 7 7 8 9 10 11 12 12 11 11 11 11 9 8 8 9 11 13 17 21 23 21 18 17 16 14 11 10 10 11 11 11 11
9 6 5 7 9 9 7 5 3 3 2 2 1 0 1 1 1 2 3 5 5 5 3 2 5 9 9 8 7 7 7 8 8 9 10 11 11 11 10 11 11 10 9 9 8 9 10 11 15 19 21 20 18 17 15 13 12 9 10 12 11 11 10
9 7 6 9 9 7 5 4 3 2 2 2 2 1 1 1 1 1 2 3 4 4 4 3 4 6 8 8 8 7 7 8 8 8 9 9 10 10 10 12 12 10 9 9 9 9 9 10 13 17 16 11 11 17 18 14 12 11 10 11 10 9 8
8 7 7 9 9 7 6 5 3 2 2 2 2 2 1 2 2 3 3 3 4 5 5 4 4 5 7 8 7 7 7 8 8 8 8 8 8 9 11 13 12 10 10 10 10 10 9 10 12 15 13 3 2 12 19 17 14 13 11 10 9 8 8
8 8 9 9 8 8 8 6 4 3 2 0 1 2 2 2 2 4 6 5 5 5 6 5 5 5 6 7 7 6 6 7 8 7 7 8 7 8 11 13 13 12 11 10 10 10 9 10 12 13 11 4 4 4 14 18 16 13 11 10 9 7 7
11 11 11 11 10 9 9 7 4 3 2 1 2 3 4 3 2 4 6 7 6 7 7 6 5 5 6 7 6 5 5 6 6 6 6 6 6 6 9 12 13 12 10 9 11 10 9 10 12 11 8 5 1 1 7 14 15 13 11 9 8 7 7
13 11 11 10 10 10 9 6 4 3 2 1 3 4 5 4 3 4 6 7 7 8 8 6 5 5 7 7 6 5 5 6 6 5 4 4 4 4 6 10 12 11 10 10 11 10 10 11 12 10 8 6 4 5 6 8 9 11 12 10 8 8 8
13 11 10 10 12 12 9 6 4 3 2 2 3 5 5 4 3 4 5 6 7 8 9 7 6 7 7 8 7 6 6 7 7 5 4 4 2 2 4 7 10 11 10 11 11 11 11 12 12 10 9 8 7 6 6 4 5 8 11 11 10 9 9
12 10 10 12 14 13 9 5 3 2 2 2 4 4 3 3 3 4 5 6 6 7 8 7 7 7 7 8 8 7 7 7 6 5 5 5 3 2 4 7 10 12 12 11 12 12 11 11 11 10 9 8 8 8 7 6 5 5 6 9 10 10 10
14 11 11 13 14 12 8 5 3 2 2 3 4 4 4 4 4 5 5 5 5 6 7 7 8 7 7 8 8 8 7 6 5 4 5 4 4 3 5 10 12 13 13 13 12 12 11 11 10 9 8 8 8 8 9 9 9 7 5 6 8 9 10
16 14 14 14 13 10 7 6 4 2 2 3 4 4 5 5 5 6 6 6 6 6 7 8 9 9 8 7 8 8 8 7 6 5 5 4 4 4 6 10 13 14 13 13 12 11 11 10 9 8 8 9 9 10 11 12 12 11 9 8 7 8 9
18 16 15 15 13 11 9 7 6 3 2 2 4 5 5 5 6 7 7 8 7 6 6 6 7 9 8 8 9 9 9 9 9 8 8 7 6 5 6 8 11 12 12 11 10 10 9 9 9 8 9 11 12 12 13 14 15 15 14 12 10 9 11
20 17 17 16 15 14 12 10 8 5 4 3 4 4 3 3 3 3 5 6 7 7 6 5 4 5 7 9 10 10 11 11 12 11 11 10 10 9 7 7 8 8 9 8 8 8 8 8 9 9 9 11 12 14 16 17 17 17 16 15 13 12 12
21 19 20 19 18 16 13 10 9 8 7 6 4 3 3 3 3 2 2 1 3 6 6 6 5 4 6 8 9 10 12 13 12 11 11 11 12 12 11 10 9 8 8 8 8 9 9 8 8 8 8 8 10 12 14 17 18 18 18 17 16 14 13
21 22 22 21 20 19 15 10 7 6 7 7 5 3 2 2 2 2 2 3 1 2 5 6 6 6 6 7 7 8 11 13 12 11 10 9 11 13 15 14 13 12 11 11 11 10 9 9 8 7 7 8 8 8 10 13 15 17 18 18 18 16 15
21 22 22 19 19 20 17 11 5 3 4 6 7 5 4 3 3 2 2 1 2 2 1 2 5 6 7 7 6 7 9 12 12 11 11 11 11 12 14 15 15 15 14 14 13 12 11 10 10 9 8 8 8 8 9 10 12 15 17 18 18 17 16
19 19 18 17 16 16 18 18 13 10 11 9 8 8 7 6 6 5 4 2 1 1 2 1 1 4 7 7 7 7 9 11 12 12 13 13 13 13 13 15 15 15 15 15 14 13 12 12 12 12 11 10 10 10 10 11 13 14 17 18 18 17 17
16 15 14 14 12 11 14 18 16 14 13 10 9 10 10 8 8 7 6 4 3 2 1 2 2 3 4 6 7 8 9 10 12 12 13 14 14 13 13 14 15 15 15 15 14 14 14 14 14 14 14 14 13 13 13 13 14 15 17 18 17 17 18
14 13 12 13 12 12 13 15 15 14 13 11 11 11 11 10 9 8 7 6 5 4 3 4 4 4 5 5 6 7 8 9 10 11 12 14 14 14 15 15 16 16 16 16 16 16 15 16 16 15 15 16 16 16 16 16 17 17 18 18 18 18 18
14 13 13 14 15 15 15 14 15 14 13 12 13 12 12 12 10 9 8 8 7 7 6 6 7 7 7 7 8 8 8 8 9 9 10 11 13 14 15 16 17 18 18 17 17 16 16 16 16 16 16 16 16 16 17 17 18 18 19 19 19 19 20
13 14 14 14 16 17 16 16 16 16 14 13 13 12 12 12 11 11 10 10 9 10 9 9 9 9 9 9 10 11 11 11 11 10 10 11 11 12 13 14 16 16 16 16 16 15 15 16 16 16 16 16 17 17 17 17 18 19 20 21 21 22 21
11 11 12 12 14 15 16 15 16 17 16 15 14 13 11 11 11 12 12 12 12 12 12 12 12 12 12 12 12 13 14 15 15 15 15 14 14 14 13 14 16 16 16 16 16 17 17 17 18 18 18 19 19 19 20 20 20 21 22 23 24 24 24
11 10 9 9 11 12 13 14 14 15 15 15 14 13 12 12 11 12 12 12 13 13 14 14 14 14 14 14 15 15 16 17 18 19 19 19 19 19 18 19 19 19 19 20 19 20 20 21 21 21 21 21 22 23 24 24 25 26 26 26 27 27 27
13 11 10 8 8 9 10 11 12 11 12 12 12 11 12 12 12 12 12 12 13 14 15 16 16 17 17 17 17 18 18 19 20 21 21 22 23 24 24 25 24 24 24 24 23 23 24 25 25 25 24 24 24 26 27 27 29 30 29 29 30 30 30
11 10 9 8 8 8 8 8 9 9 9 10 10 10 10 9 10 11 12 13 13 14 15 17 18 19 20 20 20 21 21 22 22 23 23 24 25 26 27 27 27 27 27 26 25 26 27 28 29 28 27 26 28 29 29 29 31 32 32 33 33 32 32
6 5 4 4 4 4 4 5 5 6 7 7 8 8 8 8 9 10 11 12 13 13 14 15 16 18 19 20 21 22 23 24 24 25 26 26 27 28 28 27 27 28 28 27 27 27 27 28 29 28 27 28 29 30 29 29 31 32 32 33 33 32 32
2 1 1 2 2 3 4 5 5 6 8 9 9 10 10 11 11 12 12 13 14 15 15 15 16 17 18 19 20 21 23 24 26 27 28 29 30 31 31 29 27 26 26 25 24 24 24 25 26 25 24 25 27 27 27 27 28 28 28 29 30 31 30
5 6 6 7 7 8 9 10 11 11 12 13 14 14 15 15 16 16 17 17 18 18 18 19 19 20 21 21 22 23 23 24 25 27 28 30 31 33 33 30 26 25 26 26 24 21 20 21 22 23 23 23 24 24 25 26 27 27 27 28 30 31 30
8 8 9 9 10 11 12 12 14 14 15 16 17 18 19 20 20 20 21 21 21 22 23 23 24 25 25 26 26 27 27 27 27 28 28 29 30 31 31 30 27 24 24 27 28 26 23 22 23 23 23 23 23 23 24 25 26 27 28 30 31 32 32
10 10 11 11 12 13 13 14 15 17 17 18 19 20 21 22 23 23 24 24 24 24 25 25 26 26 27 28 29 30 30 30 31 32 32 32 32 31 31 31 29 26 25 25 27 28 28 27 27 27 25 24 23 24 25 26 27 28 30 31 34 36 35
11 12 13 13 14 14 15 16 17 18 19 20 21 22 23 24 26 27 28 28 28 27 27 27 27 27 27 28 29 30 32 32 32 33 35 35 35 35 35 34 32 31 29 28 27 28 29 30 30 29 28 26 26 25 26 27 29 30 33 34 34 34 33
Wind_Direction
182 177 164 160 164 165 167 168 174 178 178 179 176 177 180 186 193 197 197 192 187 185 184 189 195 199 196 197 204 208 210 210 204 203 209 213 213 214 215 219 227 236 248 260 212 179 150 130 132 144 139 136 131 123 117 112 106 103 101 98 94 88 80
180 177 168 166 167 167 169 171 176 180 180 179 178 184 194 206 211 205 203 202 196 193 192 192 197 205 206 207 215 217 217 219 213 207 209 213 218 226 228 231 235 235 239 233 208 206 177 149 147 154 147 142 138 128 122 119 114 111 107 105 101 89 80
179 178 175 173 171 173 176 176 178 179 178 177 178 188 200 214 222 217 214 212 203 199 199 197 195 202 209 213 220 223 222 223 220 214 213 214 216 226 234 238 240 236 234 228 210 198 187 174 165 158 151 150 145 133 126 122 117 116 113 110 111 104 96
181 178 178 177 175 179 180 180 181 180 178 174 171 165 165 192 206 208 211 208 205 203 201 196 187 187 200 210 217 221 222 223 221 218 218 218 217 220 226 233 240 242 246 253 240 203 189 188 171 155 153 155 148 138 131 123 115 112 109 110 113 111 108
179 175 177 177 175 179 181 183 184 180 174 165 154 133 124 156 184 197 205 200 196 200 204 206 200 192 194 203 214 218 220 222 220 219 220 221 223 223 223 227 234 242 250 263 257 217 199 203 177 158 156 156 149 142 134 127 122 114 108 111 113 111 111
178 173 175 176 174 177 179 181 180 171 162 154 137 108 110 131 158 182 198 200 199 200 207 217 212 204 197 200 209 212 213 217 218 223 225 225 229 231 229 229 229 229 233 242 242 220 204 201 182 163 158 158 154 148 142 138 136 125 116 114 113 112 111
177 175 179 182 178 174 170 164 153 134 125 121 84 63 118 124 135 154 176 192 208 215 223 228 212 204 199 199 206 209 211 214 215 218 222 223 226 229 229 227 219 213 214 221 225 218 208 198 183 168 160 158 159 155 149 148 146 135 127 124 120 118 116
180 182 190 189 183 174 160 144 140 128 99 86 72 79 124 123 131 139 156 181 205 222 240 252 217 206 201 199 203 211 216 216 215 214 215 220 223 224 223 214 204 201 204 209 211 213 215 208 194 180 167 159 161 163 158 156 153 144 138 135 131 127 124
187 193 195 191 187 172 152 151 153 136 102 87 78 63 8 295 251 216 191 198 211 227 245 261 244 220 208 203 203 210 216 218 219 217 215 219 221 219 212 201 194 192 191 195 199 202 207 212 205 193 181 169 167 169 168 167 165 158 151 146 140 137 134
188 198 196 192 187 169 162 173 173 158 129 86 64 50 349 288 255 232 220 222 226 233 240 246 251 240 221 211 208 208 211 213 214 215 215 218 221 213 199 191 187 184 184 186 189 189 192 203 204 196 192 215 251 179 172 169 168 164 158 154 153 149 145
185 191 191 194 191 177 176 182 174 160 150 52 3 356 330 305 255 231 227 230 231 229 230 227 234 239 227 217 214 207 203 204 208 214 218 221 222 207 191 186 183 182 185 186 182 180 182 191 196 197 198 225 320 214 175 163 160 162 163 162 165 162 152
182 183 188 195 194 185 183 179 165 160 172 261 309 315 317 315 272 236 232 234 230 219 215 210 210 219 214 209 209 205 197 197 204 215 228 232 227 209 192 185 182 182 186 186 178 175 175 183 191 196 203 211 244 151 158 153 154 162 167 167 170 169 159
181 182 188 197 194 186 183 175 160 166 189 250 299 304 309 308 274 239 231 235 231 214 206 197 185 191 194 193 195 195 190 192 201 208 226 242 239 220 201 188 184 182 181 179 174 172 173 181 193 200 205 210 190 152 141 142 151 162 166 167 173 177 172
185 188 193 193 188 182 179 168 164 187 206 242 288 302 301 288 248 226 223 229 220 202 198 192 178 174 178 185 189 191 188 186 192 200 209 222 226 223 206 188 184 181 175 174 172 170 172 180 196 208 210 212 205 189 175 159 154 162 169 172 176 185 185
190 194 195 189 184 182 178 162 166 205 222 256 286 286 262 228 207 207 216 221 207 191 190 187 181 175 179 188 190 194 193 180 179 192 200 200 189 184 187 179 178 177 172 170 170 169 172 181 193 204 209 215 219 219 217 211 198 179 180 184 187 194 196
194 195 192 188 184 181 177 168 180 217 242 276 282 251 211 194 195 207 217 221 213 202 197 195 197 197 196 200 200 202 201 184 174 188 195 189 174 161 167 170 172 172 170 167 169 173 177 184 192 200 209 219 227 232 234 232 227 219 213 211 211 212 208
197 193 189 188 182 178 180 179 179 195 252 271 252 214 201 198 205 215 222 226 222 214 211 211 217 222 219 209 201 204 207 198 188 193 198 194 182 163 159 167 170 170 170 170 173 178 182 187 196 207 221 231 237 241 244 245 241 235 234 239 243 239 226
200 195 189 187 182 180 182 173 160 165 200 223 203 199 209 216 221 224 224 227 224 213 212 216 221 223 216 200 193 199 207 205 200 202 206 210 206 189 169 168 173 173 174 177 179 182 186 193 204 217 231 239 243 246 248 250 250 246 242 246 257 254 235
204 200 192 187 184 181 173 158 149 149 143 149 170 186 201 203 204 214 218 224 222 210 203 208 215 210 197 189 191 199 204 206 208 210 212 216 217 214 203 190 189 189 186 188 194 204 213 218 224 233 238 242 245 246 247 249 251 252 248 249 256 257 242
207 205 195 187 182 173 158 148 151 150 139 142 154 148 142 142 117 104 108 165 213 213 205 200 202 203 197 195 201 207 206 206 210 213 217 219 215 214 216 216 215 216 213 214 222 230 237 240 244 245 242 243 243 242 244 246 248 250 250 248 250 252 247
210 207 196 190 185 173 157 150 156 159 152 150 155 153 134 133 124 103 79 66 90 201 209 205 205 210 211 209 213 217 211 206 207 210 214 216 210 210 216 220 224 226 227 230 234 236 241 248 253 250 244 244 242 238 236 237 240 243 244 244 246 249 248
213 208 200 201 203 193 185 190 205 232 213 182 174 189 212 221 212 183 150 92 69 76 123 197 217 221 218 213 216 224 216 206 205 207 208 208 207 209 214 219 224 228 231 236 237 237 240 247 251 252 252 254 258 255 245 236 234 237 239 242 247 250 249
207 205 200 203 207 203 207 217 228 249 249 224 197 205 223 231 230 214 197 195 180 75 60 41 280 242 231 225 224 225 219 208 203 205 208 211 212 213 216 220 223 226 230 234 236 239 246 251 253 256 258 259 261 261 257 249 241 239 242 247 253 253 250
194 195 193 195 198 197 207 215 219 228 232 220 211 219 224 225 228 222 211 207 213 227 281 319 322 297 262 244 234 232 228 219 212 211 213 216 220 222 225 228 229 231 234 238 242 249 255 260 262 263 263 263 261 258 255 252 249 248 251 254 256 255 255
188 193 196 201 201 194 195 200 204 209 213 215 222 227 225 223 226 228 223 221 226 234 246 258 267 274 276 268 255 245 241 236 233 231 229 229 230 232 234 235 237 239 242 247 253 259 264 268 269 268 269 269 267 263 258 254 253 254 256 259 260 260 261
174 178 180 186 189 187 190 197 200 203 208 217 223 226 227 227 228 233 233 233 238 243 246 250 251 249 252 257 257 255 253 250 248 248 248 249 248 246 245 245 245 247 250 256 261 268 272 274 273 273 273 273 271 269 266 263 261 261 262 263 263 264 266
167 171 171 174 180 183 189 197 200 201 203 209 216 222 226 230 233 239 243 243 246 249 250 250 249 248 246 247 249 252 253 253 253 254 256 258 259 260 259 257 257 258 260 263 267 273 277 279 280 279 278 276 273 271 270 270 270 270 269 267 267 268 270
164 171 177 184 186 185 190 198 202 204 206 209 214 218 223 231 237 242 246 250 251 252 253 253 252 251 251 250 250 250 250 251 253 255 258 259 261 262 263 264 265 267 268 269 272 276 280 283 284 282 280 279 277 276 274 273 274 274 273 273 273 272 272
147 155 169 188 194 189 192 200 204 207 213 218 221 225 231 238 243 245 247 250 252 253 255 257 258 258 256 254 254 253 252 251 250 251 254 257 260 261 262 263 265 267 269 270 273 276 279 280 280 280 279 278 278 277 275 274 274 274 275 277 277 276 274
130 135 146 163 173 175 182 193 201 207 217 224 228 233 240 244 247 250 252 251 253 255 257 258 260 261 261 260 259 259 258 256 254 252 251 251 255 259 261 262 264 266 267 269 271 274 275 277 277 276 274 274 275 276 275 274 273 272 273 275 277 278 277
118 124 135 143 147 153 165 179 191 201 212 221 226 234 241 246 249 252 255 256 256 257 259 261 262 262 263 263 263 263 262 261 260 258 256 253 253 255 258 260 261 263 265 267 268 270 272 274 275 275 275 275 276 277 277 276 274 273 274 275 277 279 277
110 119 128 134 140 152 169 184 198 211 222 229 231 235 241 246 251 254 256 259 261 261 263 265 266 267 267 268 268 268 268 267 267 265 263 262 259 258 260 260 259 261 264 266 267 270 272 274 274 276 278 278 278 279 281 280 278 277 278 278 279 279 277
23 357 317 303 293 281 272 269 266 261 259 259 260 259 259 259 260 261 261 261 263 263 264 267 270 273 273 273 273 273 273 273 272 270 268 267 266 265 266 265 263 264 267 268 269 271 273 273 275 277 277 276 278 281 282 282 281 281 281 280 280 279 278
322 316 309 303 298 292 288 285 283 281 279 278 277 276 276 275 274 274 273 273 272 272 271 272 274 277 278 279 278 278 277 275 274 272 270 268 268 267 268 269 268 267 268 269 268 265 265 270 274 277 278 278 279 279 278 277 280 282 282 281 280 280 277
321 317 311 305 301 297 295 293 290 288 287 286 286 286 285 284 284 283 282 281 280 279 278 277 277 277 278 279 279 279 279 278 277 276 274 272 271 270 270 272 272 268 265 265 264 261 260 265 270 274 278 281 280 277 275 275 277 279 280 279 279 278 274
325 321 317 313 309 307 304 301 300 299 297 296 294 294 292 291 290 289 288 287 286 284 282 280 279 277 276 276 276 276 276 276 276 277 277 276 275 274 273 273 273 270 265 261 258 257 257 260 264 269 274 278 278 276 276 277 277 277 277 277 276 272 266
325 320 317 314 311 309 307 305 303 301 300 299 298 297 296 294 293 291 289 289 288 288 287 286 284 282 280 277 276 275 275 274 274 275 276 277 277 277 276 275 274 273 270 266 261 257 256 259 264 268 272 275 275 274 273 274 275 275 274 273 270 263 254
Height
1528 1530 1532 1533 1534 1535 1535 1536 1537 1538 1539 1540 1541 1541 1542 1543 1544 1545 1546 1547 1548 1548 1549 1550 1551 1552 1553 1554 1555 1556 1556 1557 1559 1560 1560 1561 1561 1562 1563 1564 1565 1566 1566 1567 1568 1569 1571 1573 1575 1576 1576 1576 1577 1577 1578 1578 1579 1580 1581 1582 1582 1583 1583
1528 1530 1531 1533 1534 1534 1535 1536 1538 1538 1539 1540 1540 1541 1542 1543 1544 1544 1545 1546 1547 1548 1549 1550 1551 1551 1553 1554 1554 1555 1556 1557 1558 1559 1560 1560 1561 1562 1562 1563 1564 1565 1566 1566 1567 1568 1569 1571 1573 1574 1574 1575 1576 1576 1577 1578 1578 1579 1580 1581 1581 1582 1583
1527 1529 1531 1532 1534 1535 1535 1536 1537 1538 1539 1540 1541 1542 1542 1543 1544 1544 1545 1546 1547 1548 1549 1550 1551 1551 1552 1553 1554 1555 1556 1557 1558 1558 1559 1560 1561 1561 1562 1563 1563 1564 1565 1565 1566 1567 1568 1569 1571 1572 1573 1574 1574 1575 1577 1577 1578 1578 1579 1580 1580 1581 1582
1526 1528 1530 1532 1533 1534 1535 1536 1537 1538 1539 1540 1541 1542 1543 1543 1544 1544 1545 1546 1547 1548 1549 1550 1551 1551 1552 1553 1553 1554 1555 1556 1557 1558 1559 1559 1560 1561 1561 1562 1563 1564 1564 1565 1565 1566 1567 1568 1569 1571 1573 1574 1574 1575 1576 1577 1578 1578 1579 1579 1580 1580 1581
1527 1528 1530 1532 1533 1534 1535 1536 1537 1538 1539 1540 1541 1542 1543 1543 1544 1544 1545 1546 1547 1548 1549 1550 1550 1551 1551 1552 1553 1553 1554 1555 1556 1557 1558 1559 1560 1560 1561 1561 1562 1563 1564 1565 1565 1566 1566 1567 1569 1571 1572 1574 1575 1575 1577 1577 1578 1579 1579 1579 1579 1580 1581
1527 1529 1530 1532 1533 1534 1536 1536 1537 1538 1539 1540 1541 1541 1542 1543 1544 1545 1546 1547 1547 1548 1549 1549 1550 1550 1551 1552 1552 1553 1553 1554 1555 1556 1557 1558 1559 1560 1561 1561 1562 1563 1564 1564 1565 1566 1567 1568 1569 1570 1573 1574 1575 1575 1577 1578 1579 1579 1580 1580 1580 1580 1581
1527 1529 1530 1532 1533 1535 1536 1537 1538 1539 1540 1540 1541 1541 1542 1543 1544 1545 1546 1547 1548 1548 1549 1549 1549 1550 1551 1551 1552 1552 1553 1554 1555 1556 1557 1557 1558 1559 1560 1561 1561 1562 1563 1564 1565 1566 1566 1568 1569 1570 1572 1574 1576 1576 1577 1578 1579 1579 1580 1580 1581 1581 1582
1527 1529 1530 1532 1534 1535 1536 1538 1539 1540 1540 1541 1541 1541 1542 1543 1544 1545 1546 1547 1548 1548 1549 1549 1549 1550 1550 1551 1551 1552 1552 1553 1554 1555 1556 1557 1558 1559 1559 1560 1561 1562 1563 1564 1565 1566 1566 1567 1569 1569 1570 1572 1575 1576 1577 1578 1579 1580 1580 1580 1581 1581 1582
1527 1529 1531 1532 1534 1535 1536 1538 1539 1540 1540 1541 1541 1541 1542 1543 1544 1545 1546 1547 1548 1548 1549 1549 1549 1550 1550 1551 1551 1552 1553 1553 1554 1555 1556 1556 1557 1558 1559 1560 1561 1562 1563 1564 1565 1566 1567 1568 1569 1570 1571 1571 1572 1574 1577 1578 1579 1579 1580 1580 1581 1582 1582
1527 1529 1531 1533 1534 1535 1536 1538 1539 1539 1540 1541 1541 1541 1542 1543 1544 1545 1546 1547 1547 1548 1548 1549 1549 1550 1550 1551 1551 1552 1553 1553 1554 1555 1556 1556 1557 1558 1559 1559 1561 1561 1563 1564 1565 1566 1567 1568 1569 1571 1572 1572 1572 1573 1574 1577 1578 1579 1580 1581 1581 1582 1582
1527 1529 1531 1532 1534 1535 1536 1538 1539 1539 1540 1541 1541 1542 1542 1543 1543 1544 1545 1546 1547 1548 1548 1549 1549 1549 1550 1551 1551 1552 1553 1554 1555 1555 1556 1556 1557 1558 1559 1559 1560 1561 1563 1564 1565 1566 1567 1568 1570 1572 1573 1574 1574 1573 1574 1575 1577 1579 1580 1581 1582 1582 1583
1527 1529 1530 1531 1533 1534 1536 1538 1538 1539 1540 1541 1541 1542 1542 1543 1543 1544 1544 1545 1546 1547 1548 1548 1549 1549 1550 1551 1551 1552 1553 1554 1555 1556 1556 1557 1557 1558 1559 1559 1560 1562 1563 1564 1565 1566 1567 1569 1571 1573 1574 1575 1575 1576 1576 1576 1577 1579 1580 1581 1582 1583 1583
1527 1528 1530 1531 1533 1534 1536 1537 1538 1539 1540 1541 1541 1542 1542 1543 1543 1544 1544 1545 1546 1546 1547 1548 1549 1549 1550 1551 1552 1553 1554 1554 1555 1556 1557 1557 1557 1558 1559 1560 1561 1562 1563 1564 1565 1566 1568 1569 1572 1573 1575 1576 1577 1577 1578 1578 1579 1579 1581 1582 1583 1583 1584
1527 1528 1529 1531 1533 1534 1536 1537 1537 1539 1540 1540 1541 1542 1542 1542 1543 1544 1544 1545 1546 1546 1547 1548 1549 1549 1550 1551 1552 1553 1554 1555 1556 1557 1557 1558 1558 1558 1559 1560 1561 1562 1563 1565 1566 1567 1568 1570 1572 1574 1575 1576 1577 1578 1579 1580 1580 1581 1581 1582 1582 1583 1583
1527 1528 1529 1530 1532 1534 1535 1536 1537 1538 1539 1540 1541 1541 1542 1542 1543 1544 1545 1545 1546 1546 1547 1548 1548 1549 1550 1551 1552 1553 1554 1555 1556 1557 1558 1559 1559 1559 1560 1560 1561 1563 1564 1565 1566 1567 1568 1570 1572 1573 1575 1576 1577 1578 1579 1580 1580 1581 1581 1581 1582 1582 1583
1526 1527 1529 1530 1532 1533 1534 1536 1537 1538 1539 1540 1540 1541 1541 1542 1543 1544 1545 1546 1546 1546 1547 1547 1548 1549 1550 1551 1551 1552 1553 1555 1556 1557 1558 1559 1560 1560 1560 1561 1562 1563 1564 1566 1567 1568 1569 1570 1572 1573 1574 1575 1576 1577 1578 1579 1580 1581 1581 1581 1582 1582 1582
1525 1526 1528 1530 1531 1533 1534 1535 1536 1538 1539 1539 1540 1541 1541 1542 1543 1544 1545 1546 1546 1546 1547 1547 1548 1549 1549 1550 1551 1552 1553 1555 1556 1557 1558 1559 1560 1561 1561 1562 1563 1564 1565 1566 1567 1568 1569 1570 1571 1572 1574 1575 1576 1577 1578 1579 1580 1580 1581 1581 1582 1582 1582
1525 1526 1528 1529 1531 1533 1534 1535 1536 1537 1538 1539 1540 1541 1542 1543 1543 1544 1545 1546 1546 1546 1547 1547 1548 1548 1549 1550 1551 1552 1553 1554 1556 1557 1558 1559 1560 1561 1562 1563 1564 1565 1566 1566 1567 1568 1569 1570 1571 1572 1573 1574 1575 1576 1577 1578 1579 1580 1580 1581 1582 1582 1582
1525 1526 1528 1529 1531 1532 1533 1534 1535 1536 1538 1539 1540 1541 1542 1543 1544 1544 1545 1545 1546 1546 1547 1547 1547 1548 1548 1549 1550 1551 1553 1554 1555 1557 1558 1559 1560 1561 1562 1563 1564 1565 1566 1566 1567 1568 1569 1570 1571 1572 1572 1573 1574 1575 1576 1576 1577 1578 1580 1580 1581 1581 1582
1524 1526 1527 1528 1530 1531 1532 1534 1535 1536 1538 1539 1541 1542 1543 1544 1544 1545 1545 1545 1545 1546 1546 1547 1547 1548 1548 1549 1550 1551 1552 1554 1555 1556 1557 1558 1559 1561 1562 1563 1564 1565 1566 1566 1567 1568 1569 1570 1570 1571 1572 1572 1573 1573 1574 1575 1576 1577 1578 1579 1580 1580 1580
1523 1525 1526 1527 1529 1530 1531 1532 1534 1536 1538 1539 1541 1542 1543 1544 1545 1545 1546 1545 1546 1546 1546 1547 1547 1548 1549 1549 1550 1551 1552 1554 1555 1556 1557 1558 1559 1560 1561 1562 1563 1564 1565 1566 1567 1568 1568 1569 1570 1570 1571 1571 1572 1572 1573 1574 1575 1576 1577 1578 1579 1579 1579
1522 1524 1525 1526 1528 1529 1530 1532 1535 1537 1538 1539 1541 1543 1544 1545 1545 1546 1546 1546 1546 1546 1547 1547 1548 1548 1549 1549 1550 1551 1552 1553 1555 1556 1557 1558 1559 1560 1561 1562 1563 1564 1565 1566 1566 1567 1568 1568 1569 1569 1570 1570 1571 1571 1572 1573 1573 1574 1575 1576 1577 1577 1577
1522 1523 1524 1526 1528 1530 1531 1533 1536 1538 1539 1540 1541 1542 1543 1544 1545 1545 1545 1546 1546 1546 1547 1548 1548 1549 1549 1550 1550 1551 1552 1553 1554 1556 1557 1558 1559 1560 1561 1562 1562 1563 1564 1564 1565 1566 1566 1567 1567 1568 1568 1569 1569 1570 1570 1571 1572 1573 1574 1574 1575 1575 1575
1522 1523 1525 1526 1528 1530 1531 1533 1536 1537 1538 1540 1541 1542 1543 1543 1544 1545 1545 1545 1546 1546 1547 1548 1548 1549 1549 1550 1551 1551 1552 1553 1554 1555 1556 1557 1558 1559 1560 1561 1562 1562 1563 1563 1564 1565 1565 1566 1566 1566 1567 1567 1568 1568 1569 1569 1570 1571 1571 1572 1572 1572 1572
1522 1523 1525 1526 1527 1529 1531 1532 1535 1536 1538 1539 1540 1541 1542 1543 1543 1544 1544 1545 1545 1546 1546 1547 1548 1548 1549 1550 1551 1551 1552 1553 1554 1555 1556 1556 1557 1558 1559 1560 1560 1561 1561 1562 1563 1563 1564 1564 1565 1565 1565 1566 1566 1566 1567 1568 1568 1569 1569 1569 1570 1570 1570
1522 1523 1525 1526 1527 1529 1530 1532 1534 1535 1537 1538 1539 1540 1541 1541 1542 1543 1543 1544 1545 1545 1546 1546 1547 1547 1548 1549 1549 1550 1551 1552 1553 1554 1555 1555 1556 1557 1557 1558 1558 1559 1560 1561 1561 1562 1562 1563 1563 1563 1564 1564 1564 1565 1565 1566 1566 1567 1567 1567 1567 1567 1568
1523 1524 1525 1527 1528 1529 1531 1532 1533 1535 1536 1537 1538 1539 1540 1540 1541 1542 1542 1543 1544 1545 1545 1546 1546 1547 1547 1548 1548 1549 1550 1551 1552 1553 1553 1554 1554 1555 1555 1556 1556 1557 1558 1559 1559 1560 1560 1560 1561 1561 1562 1562 1562 1563 1563 1564 1564 1564 1565 1565 1565 1565 1566
1524 1525 1526 1527 1528 1529 1531 1532 1533 1534 1535 1536 1537 1538 1538 1539 1540 1540 1542 1543 1543 1544 1544 1545 1545 1546 1546 1547 1547 1548 1548 1549 1550 1550 1551 1552 1552 1552 1553 1553 1554 1555 1556 1556 1557 1558 1558 1558 1559 1559 1560 1560 1560 1560 1561 1561 1561 1561 1561 1562 1562 1562 1563
1525 1526 1527 1528 1528 1529 1531 1532 1533 1534 1534 1535 1536 1536 1537 1538 1539 1540 1540 1541 1542 1542 1543 1544 1544 1545 1545 1546 1546 1546 1547 1547 1547 1548 1548 1549 1550 1550 1551 1551 1552 1552 1553 1554 1555 1555 1556 1556 1556 1557 1557 1557 1558 1558 1558 1558 1558 1558 1558 1558 1558 1559 1560
1526 1527 1528 1528 1529 1530 1531 1532 1533 1534 1534 1534 1535 1536 1537 1538 1538 1539 1539 1540 1541 1541 1541 1542 1542 1543 1543 1544 1544 1544 1545 1545 1545 1545 1546 1546 1547 1547 1548 1548 1549 1550 1550 1551 1552 1553 1553 1553 1553 1553 1554 1554 1554 1555 1555 1555 1555 1555 1555 1555 1555 1555 1556
1528 1529 1529 1529 1530 1531 1531 1532 1532 1533 1534 1534 1534 1536 1536 1537 1537 1538 1538 1539 1540 1540 1540 1540 1540 1540 1541 1541 1542 1542 1542 1542 1543 1543 1543 1544 1544 1544 1544 1545 1547 1547 1547 1548 1549 1549 1549 1549 1549 1549 1550 1550 1550 1550 1551 1551 1551 1551 1551 1552 1551 1551 1552
1529 1529 1530 1530 1531 1531 1532 1532 1533 1533 1533 1534 1534 1535 1535 1535 1536 1536 1537 1537 1538 1538 1538 1538 1538 1538 1539 1539 1539 1539 1539 1539 1540 1540 1541 1541 1541 1541 1541 1543 1544 1544 1543 1544 1545 1545 1545 1545 1544 1545 1546 1546 1545 1545 1546 1547 1547 1547 1547 1547 1547 1547 1547
1528 1529 1530 1530 1530 1531 1531 1532 1533 1533 1533 1533 1533 1534 1534 1534 1534 1535 1535 1536 1536 1536 1537 1536 1536 1536 1536 1536 1536 1536 1536 1536 1536 1537 1537 1537 1538 1538 1538 1539 1541 1542 1540 1541 1541 1542 1541 1541 1540 1541 1542 1542 1541 1541 1542 1543 1543 1543 1544 1544 1543 1543 1543
1528 1528 1529 1529 1529 1530 1530 1531 1531 1532 1532 1532 1532 1532 1532 1533 1533 1533 1534 1534 1534 1535 1535 1535 1534 1534 1534 1533 1533 1533 1533 1533 1533 1533 1534 1534 1534 1534 1534 1534 1535 1537 1537 1537 1537 1537 1537 1537 1537 1537 1537 1538 1538 1538 1539 1539 1539 1540 1540 1540 1540 1539 1539
1527 1527 1528 1528 1528 1528 1528 1529 1529 1529 1529 1530 1530 1530 1530 1530 1530 1531 1531 1531 1532 1532 1532 1532 1532 1532 1532 1531 1531 1531 1531 1531 1530 1530 1530 1530 1530 1531 1531 1530 1531 1532 1533 1533 1533 1533 1533 1533 1533 1532 1533 1534 1534 1534 1535 1536 1536 1536 1536 1536 1536 1536 1536
1525 1526 1526 1526 1526 1526 1526 1526 1526 1526 1526 1526 1527 1527 1527 1527 1527 1527 1527 1528 1528 1528 1528 1528 1529 1529 1529 1529 1528 1528 1527 1527 1527 1526 1526 1526 1526 1526 1526 1526 1527 1528 1529 1529 1529 1529 1529 1529 1528 1528 1529 1529 1529 1529 1530 1531 1532 1532 1532 1532 1532 1531 1531
1524 1524 1524 1524 1524 1524 1524 1525 1524 1524 1524 1524 1524 1524 1523 1523 1523 1523 1523 1523 1523 1523 1523 1523 1524 1524 1525 1525 1525 1524 1523 1523 1523 1522 1521 1521 1521 1521 1521 1522 1522 1523 1524 1524 1525 1525 1525 1525 1525 1525 1525 1525 1525 1525 1525 1526 1527 1528 1527 1527 1527 1527 1527